Zurück zum Katalog

STARLINK-36545

AktivKommunikationVLEO
NORAD 67505·PAYLOAD·🇺🇸 United States

Gestartet Jan 18, 2026 von Cape Canaveral Space Force Station

Loading…

Nächste Überflüge (nächste 24 Stunden)

TLE

AktuellSource: CelesTrak SupGP

Epoche: Sep 14, 2026, 23:26 UTC

1 67505C 26012N   26257.97687500  .00004578  00000+0  16582-3 0  2573
2 67505  43.0029 325.0969 0001553 269.8528 118.1364 15.27577651    12

Verfolge STARLINK-36545 in Echtzeit mit AllMySat

Download on the App Store